• în Republica Moldova
  • Lista ţărilor
  • Pe 7 zile
  • Temperatura apei
  • Hartă satelitară
  • Meteo pe hartă
  • Widget-uri
  • user-avatar
    Intrare

    Meteo pe oră la Perth

    Astăzi, 18 Decembrie, Marţi

    Timp Temperatura Precipitaţii Vânt Presiune Umiditate
    00:00 +20°C° 0 mm 5 m/s 760 mmHg 61%
    01:00 +19°C° 0 mm 5 m/s 760 mmHg 64%
    02:00 +18°C° 0 mm 4 m/s 760 mmHg 69%
    03:00 +17°C° 0 mm 4 m/s 760 mmHg 72%
    04:00 +17°C° 0 mm 3 m/s 760 mmHg 75%
    05:00 +16°C° 0 mm 3 m/s 760 mmHg 78%
    06:00 +18°C° 0 mm 3 m/s 761 mmHg 71%
    07:00 +19°C° 0 mm 4 m/s 761 mmHg 65%
    08:00 +21°C° 0 mm 3 m/s 762 mmHg 57%
    09:00 +22°C° 0 mm 3 m/s 761 mmHg 51%
    10:00 +25°C° 0 mm 3 m/s 761 mmHg 44%
    11:00 +27°C° 0 mm 3 m/s 761 mmHg 38%
    12:00 +28°C° 0 mm 4 m/s 761 mmHg 36%
    13:00 +29°C° 0 mm 4 m/s 761 mmHg 34%
    14:00 +29°C° 0 mm 5 m/s 761 mmHg 37%
    15:00 +29°C° 0 mm 5 m/s 761 mmHg 36%
    16:00 +29°C° 0 mm 5 m/s 760 mmHg 35%
    17:00 +29°C° 0 mm 5 m/s 760 mmHg 35%
    18:00 +27°C° 0 mm 5 m/s 761 mmHg 41%
    19:00 +25°C° 0 mm 5 m/s 761 mmHg 46%
    20:00 +22°C° 0 mm 5 m/s 761 mmHg 52%
    21:00 +22°C° 0 mm 5 m/s 761 mmHg 54%
    22:00 +21°C° 0 mm 4 m/s 762 mmHg 55%
    23:00 +21°C° 0 mm 4 m/s 762 mmHg 56%

    Mâine, 19 Decembrie, Miercuri

    Timp Temperatura Precipitaţii Vânt Presiune Umiditate
    00:00 +20°C° 0 mm 4 m/s 762 mmHg 58%
    01:00 +20°C° 0 mm 4 m/s 762 mmHg 60%
    02:00 +19°C° 0 mm 4 m/s 762 mmHg 62%
    03:00 +19°C° 0 mm 4 m/s 762 mmHg 65%
    04:00 +18°C° 0 mm 4 m/s 762 mmHg 67%
    05:00 +18°C° 0 mm 4 m/s 762 mmHg 70%
    06:00 +19°C° 0 mm 4 m/s 762 mmHg 64%
    07:00 +20°C° 0 mm 4 m/s 763 mmHg 58%
    08:00 +22°C° 0 mm 4 m/s 763 mmHg 52%
    09:00 +25°C° 0 mm 4 m/s 763 mmHg 44%
    10:00 +27°C° 0 mm 4 m/s 763 mmHg 35%
    11:00 +29°C° 0 mm 3 m/s 762 mmHg 27%
    12:00 +30°C° 0 mm 4 m/s 762 mmHg 26%
    13:00 +32°C° 0 mm 4 m/s 762 mmHg 25%
    14:00 +33°C° 0 mm 5 m/s 761 mmHg 24%
    15:00 +32°C° 0 mm 5 m/s 761 mmHg 25%
    16:00 +32°C° 0 mm 6 m/s 761 mmHg 27%
    17:00 +30°C° 0 mm 6 m/s 760 mmHg 29%
    18:00 +28°C° 0 mm 6 m/s 761 mmHg 35%
    19:00 +26°C° 0 mm 6 m/s 761 mmHg 41%
    20:00 +23°C° 0 mm 6 m/s 761 mmHg 48%
    21:00 +22°C° 0 mm 5 m/s 762 mmHg 48%
    22:00 +22°C° 0 mm 5 m/s 762 mmHg 48%
    23:00 +21°C° 0 mm 5 m/s 762 mmHg 48%

    Poimâine, 20 Decembrie, Joi

    Timp Temperatura Precipitaţii Vânt Presiune Umiditate
    00:00 +21°C° 0 mm 5 m/s 762 mmHg 47%
    01:00 +21°C° 0 mm 5 m/s 761 mmHg 46%
    02:00 +21°C° 0 mm 5 m/s 761 mmHg 45%
    03:00 +21°C° 0 mm 5 m/s 761 mmHg 47%
    04:00 +20°C° 0 mm 5 m/s 761 mmHg 50%
    05:00 +20°C° 0 mm 5 m/s 761 mmHg 52%
    06:00 +21°C° 0 mm 5 m/s 762 mmHg 49%
    07:00 +22°C° 0 mm 5 m/s 762 mmHg 46%
    08:00 +25°C° 0 mm 5 m/s 762 mmHg 43%
    09:00 +27°C° 0 mm 5 m/s 762 mmHg 37%
    10:00 +30°C° 0 mm 4 m/s 762 mmHg 31%
    11:00 +34°C° 0 mm 4 m/s 762 mmHg 25%
    12:00 +35°C° 0 mm 4 m/s 761 mmHg 23%
    13:00 +36°C° 0 mm 4 m/s 760 mmHg 21%
    14:00 +37°C° 0 mm 4 m/s 760 mmHg 19%
    15:00 +36°C° 0 mm 5 m/s 759 mmHg 19%
    16:00 +36°C° 0 mm 5 m/s 759 mmHg 20%
    17:00 +35°C° 0 mm 6 m/s 759 mmHg 21%
    18:00 +34°C° 0 mm 6 m/s 759 mmHg 23%
    19:00 +32°C° 0 mm 5 m/s 759 mmHg 26%
    20:00 +29°C° 0 mm 5 m/s 759 mmHg 28%
    21:00 +28°C° 0 mm 6 m/s 759 mmHg 30%
    22:00 +28°C° 0 mm 7 m/s 760 mmHg 32%
    23:00 +27°C° 0 mm 7 m/s 760 mmHg 34%

    21 Decembrie, Vineri

    Timp Temperatura Precipitaţii Vânt Presiune Umiditate
    00:00 +26°C° 0 mm 7 m/s 760 mmHg 39%
    01:00 +23°C° 0 mm 7 m/s 760 mmHg 44%
    02:00 +22°C° 0 mm 7 m/s 760 mmHg 49%
    03:00 +22°C° 0 mm 7 m/s 760 mmHg 49%
    04:00 +22°C° 0 mm 7 m/s 760 mmHg 49%
    05:00 +21°C° 0 mm 7 m/s 760 mmHg 49%
    06:00 +23°C° 0 mm 6 m/s 760 mmHg 45%
    07:00 +24°C° 0 mm 6 m/s 760 mmHg 42%
    08:00 +27°C° 0 mm 6 m/s 761 mmHg 38%
    09:00 +30°C° 0 mm 5 m/s 760 mmHg 32%
    10:00 +33°C° 0 mm 5 m/s 760 mmHg 27%
    11:00 +36°C° 0 mm 4 m/s 760 mmHg 21%
    12:00 +38°C° 0 mm 4 m/s 759 mmHg 19%
    13:00 +40°C° 0 mm 4 m/s 759 mmHg 17%
    14:00 +42°C° 0 mm 3 m/s 758 mmHg 15%
    15:00 +41°C° 0 mm 4 m/s 758 mmHg 16%
    16:00 +41°C° 0 mm 4 m/s 757 mmHg 16%
    17:00 +41°C° 0 mm 4 m/s 757 mmHg 16%
    18:00 +38°C° 0 mm 4 m/s 757 mmHg 18%
    19:00 +36°C° 0 mm 4 m/s 757 mmHg 21%
    20:00 +34°C° 0 mm 4 m/s 757 mmHg 23%
    21:00 +33°C° 0 mm 4 m/s 758 mmHg 23%
    22:00 +33°C° 0 mm 4 m/s 758 mmHg 23%
    23:00 +32°C° 0 mm 4 m/s 758 mmHg 23%

    22 Decembrie, Sâmbătă

    Timp Temperatura Precipitaţii Vânt Presiune Umiditate
    00:00 +32°C° 0 mm 4 m/s 758 mmHg 22%
    01:00 +32°C° 0 mm 5 m/s 758 mmHg 21%
    02:00 +32°C° 0 mm 5 m/s 757 mmHg 20%
    03:00 +32°C° 0 mm 5 m/s 757 mmHg 21%
    04:00 +32°C° 0 mm 5 m/s 758 mmHg 21%
    05:00 +32°C° 0 mm 5 m/s 758 mmHg 21%
    06:00 +33°C° 0 mm 5 m/s 758 mmHg 21%
    07:00 +35°C° 0 mm 5 m/s 758 mmHg 21%
    08:00 +36°C° 0 mm 5 m/s 759 mmHg 21%
    09:00 +37°C° 0 mm 5 m/s 759 mmHg 19%
    10:00 +40°C° 0 mm 5 m/s 758 mmHg 17%
    11:00 +41°C° 0 mm 5 m/s 758 mmHg 16%
    12:00 +42°C° 0 mm 5 m/s 758 mmHg 17%
    13:00 +42°C° 0 mm 5 m/s 757 mmHg 17%
    14:00 +42°C° 0 mm 5 m/s 757 mmHg 18%
    15:00 +41°C° 0 mm 5 m/s 757 mmHg 22%
    16:00 +38°C° 0 mm 4 m/s 757 mmHg 26%
    17:00 +36°C° 0 mm 4 m/s 757 mmHg 30%
    18:00 +34°C° 0 mm 3 m/s 757 mmHg 35%
    19:00 +33°C° 0 mm 3 m/s 758 mmHg 41%
    20:00 +30°C° 0 mm 2 m/s 759 mmHg 46%
    21:00 +29°C° 0 mm 2 m/s 759 mmHg 49%
    22:00 +28°C° 0 mm 1 m/s 759 mmHg 52%
    23:00 +27°C° 0 mm 1 m/s 759 mmHg 55%

    23 Decembrie, Duminică

    Timp Temperatura Precipitaţii Vânt Presiune Umiditate
    00:00 +27°C° 0 mm 1 m/s 759 mmHg 57%
    01:00 +26°C° 0 mm 1 m/s 759 mmHg 58%
    02:00 +26°C° 0 mm 1 m/s 758 mmHg 59%
    03:00 +26°C° 0 mm 1 m/s 758 mmHg 60%
    04:00 +26°C° 0 mm 1 m/s 758 mmHg 61%
    05:00 +25°C° 0 mm 1 m/s 758 mmHg 61%
    06:00 +27°C° 0 mm 1 m/s 759 mmHg 55%
    07:00 +30°C° 0 mm 1 m/s 759 mmHg 49%
    08:00 +32°C° 0 mm 1 m/s 760 mmHg 43%
    09:00 +34°C° 0 mm 2 m/s 759 mmHg 39%
    10:00 +35°C° 0 mm 3 m/s 759 mmHg 36%
    11:00 +37°C° 0 mm 4 m/s 759 mmHg 32%
    12:00 +36°C° 0 mm 4 m/s 759 mmHg 33%
    13:00 +36°C° 0 mm 4 m/s 758 mmHg 34%
    14:00 +36°C° 0 mm 5 m/s 758 mmHg 35%
    15:00 +35°C° 0 mm 5 m/s 758 mmHg 38%
    16:00 +34°C° 0 mm 5 m/s 757 mmHg 40%
    17:00 +33°C° 0 mm 5 m/s 757 mmHg 43%
    18:00 +30°C° 0 mm 4 m/s 758 mmHg 47%
    19:00 +28°C° 0 mm 4 m/s 758 mmHg 51%
    20:00 +27°C° 0 mm 3 m/s 759 mmHg 56%
    21:00 +26°C° 0 mm 3 m/s 759 mmHg 57%
    22:00 +25°C° 0 mm 2 m/s 759 mmHg 58%
    23:00 +25°C° 0 mm 2 m/s 759 mmHg 59%
    Arată mai mult